Location: Stuart
(27.1975°N, 80.2528°W)
Time: 14:26:17
(UTC-04:00)

Envisat - Visible Passes

Search period start: 15 May 2021 00:00
Search period end: 25 May 2021 00:00
Orbit: 764 x 766 km, 98.1° (Epoch: 14 May)

Date Brightness Start Highest point End Pass type
(mag) Time Alt. Az. Time Alt. Az. Time Alt. Az.
15 May 5.4 05:53:09 10° NE 05:57:12 24° E 06:01:13 10° SSE visible
18 May 5.7 05:42:17 10° NE 05:45:42 18° E 05:49:05 10° SE visible
21 May 5.8 05:31:46 10° ENE 05:34:10 13° E 05:36:34 10° ESE visible
23 May 5.2 05:55:28 10° NE 05:59:40 26° E 06:03:52 10° SSE visible
